[[{"header":{"parameterUnit":"m.s-1","parameterCategory":1,"la1":30.2991,"la2":30.254,"lo1":-89.0895,"lo2":-89.0444,"dy":0.0017,"dx":0.0017,"nx":28,"ny":28,"refTime":"2025-01-07T09:00:00:Z","depth":0,"parameterNumber":2,"parameterNumberName":"U-component_of_WINDS"},"data":[0,0,0,0,0,0,0,0,0,0,0,0,0,0,0,0,0,0,0,0,0,0,0,0,0,0,0,0,0,0,0,0,0,0,0,0,0,0,0,0,0,0,0,0,0,0,0,0,0,0,0,0,0,0,0,0,0,0,-0.7413,-0.7413,0,-0.7436,-0.7436,-0.7436,-0.7406,-0.7405,-0.7404,-0.7403,-0.7428,-0.7429,-0.7431,0,0,0,0,0,0,0,0,0,0,0,0,0,-0.7345,-0.7346,-0.7413,-0.7413,-0.7413,-0.7435,-0.7436,-0.7436,-0.7407,-0.7405,-0.7404,-0.7403,-0.7427,-0.7429,-0.7431,0,0,0,0,0,0,0,0,0,0,0,0,0,-0.7372,-0.7347,-0.7413,-0.7401,-0.7401,-0.7435,-0.7436,-0.7436,-0.7407,-0.7405,-0.7404,-0.7402,-0.7427,-0.7429,-0.7432,-0.7479,0,0,-0.7439,-0.744,0,0,0,0,0,0,0,0,-0.737,-0.7374,-0.7403,-0.7402,-0.7401,-0.7416,-0.7421,-0.7451,-0.7407,-0.7405,-0.7403,-0.7401,-0.7425,-0.7428,-0.7436,-0.748,-0.7481,-0.7439,-0.7441,-0.7442,-0.7443,0,0,0,0,0,0,0,-0.7368,-0.7373,-0.7422,-0.7403,-0.7402,-0.7395,-0.7397,-0.7426,-0.7424,-0.7405,-0.7403,-0.7406,-0.7425,-0.7433,-0.7436,-0.7482,-0.7439,-0.7441,-0.7443,-0.7444,-0.7566,-0.7568,0,0,0,0,0,0,-0.7368,-0.7372,-0.7421,-0.7423,-0.7381,-0.7398,-0.74,-0.7413,-0.7423,-0.7423,-0.7407,-0.7404,-0.743,-0.7433,-0.7437,-0.7494,-0.7442,-0.7444,-0.7446,-0.7564,-0.7566,-0.7568,0,0,0,0,0,0,-0.7366,-0.7372,-0.742,-0.7396,-0.7402,-0.7401,-0.7416,-0.7415,-0.7423,-0.7425,-0.7425,-0.7416,-0.7429,-0.7433,-0.7469,-0.7494,-0.7445,-0.7448,-0.7562,-0.7565,-0.7567,-0.7607,0,0,0,0,0,0,-0.7364,-0.7372,-0.739,-0.7397,-0.7403,-0.7452,-0.7417,-0.7416,-0.7427,-0.7424,-0.7434,-0.7434,-0.7428,-0.7465,-0.7471,-0.7497,-0.745,-0.756,-0.7563,-0.7567,-0.7604,-0.7611,-0.7617,0,0,0,0,0,-0.7362,-0.7401,-0.7391,-0.7397,-0.7426,-0.7453,-0.7457,-0.7449,-0.743,-0.7448,-0.7449,-0.7434,-0.749,-0.7469,-0.7476,-0.7502,-0.7558,-0.7562,-0.7566,-0.7601,-0.761,-0.7617,0,0,0,0,0,0,-0.7398,-0.7402,-0.7391,-0.7433,-0.7443,-0.7448,-0.7471,-0.7459,-0.7475,-0.7471,-0.7461,-0.7463,-0.7501,-0.7505,-0.7481,-0.7548,-0.7521,-0.7526,-0.7545,-0.7553,-0.756,-0.7559,-0.7452,0,0,0,0,0,-0.741,-0.7432,-0.7434,-0.7471,-0.7476,-0.7473,-0.7485,-0.7477,-0.7487,-0.7492,-0.7495,-0.7506,-0.7526,-0.754,-0.7558,-0.7603,-0.7605,-0.7625,-0.7631,-0.7637,-0.7642,-0.7667,-0.7676,-0.7581,-0.7581,-0.7581,0,0,-0.7437,-0.7442,-0.7456,-0.7478,-0.7485,-0.7508,-0.7477,-0.7502,-0.7519,-0.7496,-0.753,-0.7532,-0.7543,-0.7584,-0.7602,-0.7588,-0.7668,-0.7642,-0.7646,-0.7649,-0.7672,-0.7681,-0.7689,-0.7584,-0.7583,-0.7583,0,0,-0.7497,-0.7503,-0.7534,-0.7541,-0.7552,-0.7549,-0.7557,-0.7563,-0.7564,-0.7598,-0.758,-0.76,-0.7635,-0.7643,-0.7652,-0.7714,-0.7701,-0.772,-0.7756,-0.778,-0.7788,-0.7794,-0.7817,-0.7825,-0.7725,-0.7726,-0.7726,0,-0.753,-0.7563,-0.7552,-0.7579,-0.7589,-0.7568,-0.76,-0.7607,-0.7623,-0.7631,-0.7615,-0.7658,-0.7664,-0.7706,-0.7721,-0.7729,-0.7737,-0.772,-0.7787,-0.7794,-0.78,-0.7821,-0.783,-0.7728,-0.7728,-0.7727,-0.7727,0,-0.7602,-0.7626,-0.765,-0.7666,-0.7678,-0.7708,-0.7701,-0.7715,-0.7706,-0.7705,-0.7739,-0.7745,-0.7765,-0.7774,-0.7766,-0.7815,-0.7806,-0.7789,-0.7761,-0.7811,-0.7832,-0.784,-0.7731,-0.773,-0.773,-0.7729,0,0,-0.7688,-0.7696,-0.7705,-0.7712,-0.7721,-0.7739,-0.7767,-0.7785,-0.7798,-0.7809,-0.7833,-0.7862,-0.7845,-0.7856,-0.7848,-0.7869,-0.7918,-0.7849,-0.7849,-0.7862,-0.7973,-0.7987,-0.7997,-0.7908,-0.791,-0.7911,-0.7973,0,-0.7749,-0.7798,-0.7788,-0.7835,-0.7857,-0.7836,-0.786,-0.7868,-0.7867,-0.7886,-0.7884,-0.7906,-0.7882,-0.7888,-0.7908,-0.7908,-0.794,-0.7903,-0.7931,-0.7932,-0.793,-0.8008,-0.8023,-0.8081,-0.798,-0.7982,-0.7983,0,-0.7828,-0.7842,-0.7891,-0.7896,-0.7905,-0.7927,-0.7943,-0.796,-0.7969,-0.7966,-0.7977,-0.7965,-0.7993,-0.7963,-0.8001,-0.7976,-0.7986,-0.7988,-0.799,-0.7994,-0.7962,-0.8015,-0.8099,-0.8108,-0.7995,-0.7994,-0.7993,0,-0.7887,-0.7918,-0.7951,-0.7957,-0.7964,-0.798,-0.7983,-0.799,-0.8001,-0.8015,-0.8022,-0.8039,-0.8048,-0.8061,-0.8054,-0.8033,-0.8094,-0.8063,-0.8093,-0.8094,-0.8109,-0.8108,-0.8197,-0.8113,-0.8113,-0.8113,-0.8112,0,-0.7958,-0.7989,-0.7978,-0.7999,-0.8033,-0.8021,-0.8055,-0.8056,-0.8062,-0.8083,-0.8065,-0.8085,-0.8073,-0.8092,-0.8086,-0.8119,-0.8123,-0.8122,-0.8121,-0.8125,-0.8125,-0.8133,-0.8129,-0.8115,-0.8114,-0.8114,-0.8113,0,-0.803,-0.8024,-0.8059,-0.8062,-0.8063,-0.8088,-0.8091,-0.811,-0.8107,-0.8133,-0.8139,-0.8134,-0.8155,-0.8149,-0.8172,-0.8168,-0.821,-0.8202,-0.8207,-0.8206,-0.8236,-0.8234,-0.8335,-0.8348,-0.8254,-0.8254,-0.8255,0,-0.8077,-0.81,-0.8105,-0.8117,-0.8122,-0.8142,-0.8153,-0.8142,-0.8154,-0.8165,-0.8183,-0.8202,-0.8217,-0.8252,-0.8251,-0.8268,-0.8262,-0.8296,-0.8265,-0.8268,-0.8264,-0.8263,-0.8266,-0.8303,-0.8304,-0.8305,-0.8306,0,-0.816,-0.8155,-0.8172,-0.8187,-0.8201,-0.8213,-0.8223,-0.8234,-0.8223,-0.8238,-0.8259,-0.827,-0.8293,-0.8313,-0.8328,-0.8331,-0.8317,-0.8315,-0.8323,-0.8328,-0.8331,-0.8331,-0.8226,-0.8313,-0.8313,-0.8312,-0.8312,-0.8311,-0.8222,-0.8241,-0.8248,-0.8267,-0.8273,-0.8283,-0.8301,-0.83,-0.8317,-0.8334,-0.8326,-0.8351,-0.8358,-0.8376,-0.8382,-0.8401,-0.8388,-0.8399,-0.8402,-0.8406,-0.841,-0.8326,-0.8403,-0.8403,-0.8403,-0.8403,-0.8403,0,-0.8305,-0.8308,-0.8325,-0.8339,-0.8354,-0.8338,-0.8348,-0.8362,-0.8383,-0.8391,-0.8406,-0.843,-0.8448,-0.8448,-0.8465,-0.848,-0.8474,-0.8485,-0.8485,-0.8486,-0.842,-0.8412,-0.849,-0.849,-0.849,-0.849,-0.849,-0.849,-0.835,-0.8383,-0.8379,-0.8414,-0.8417,-0.844,-0.8448,-0.8456,-0.8462,-0.849,-0.8505,-0.8504,-0.8508,-0.8525,-0.8541,-0.8541,-0.8548,-0.8562,-0.856,-0.8499,-0.849,-0.8482,-0.8475,-0.8564,-0.8564,-0.8623,-0.8624,-0.8624]},{"header":{"parameterUnit":"m.s-1","parameterCategory":1,"la1":30.2991,"la2":30.254,"lo1":-89.0895,"lo2":-89.0444,"dy":0.0017,"dx":0.0017,"nx":28,"ny":28,"refTime":"2025-01-07T09:00:00:Z","depth":0,"parameterNumber":3,"parameterNumberName":"V-component_of_WINDS"},"data":[0,0,0,0,0,0,0,0,0,0,0,0,0,0,0,0,0,0,0,0,0,0,0,0,0,0,0,0,0,0,0,0,0,0,0,0,0,0,0,0,0,0,0,0,0,0,0,0,0,0,0,0,0,0,0,0,0,0,-6.1521,-6.1522,0,-6.1615,-6.1616,-6.1617,-6.1568,-6.1565,-6.1563,-6.156,-6.1651,-6.1656,-6.166,0,0,0,0,0,0,0,0,0,0,0,0,0,-6.1294,-6.1298,-6.1521,-6.1522,-6.1523,-6.1615,-6.1616,-6.1617,-6.1568,-6.1565,-6.1562,-6.1559,-6.1649,-6.1655,-6.1661,0,0,0,0,0,0,0,0,0,0,0,0,0,-6.139,-6.13,-6.1521,-6.151,-6.151,-6.1615,-6.1616,-6.1618,-6.1569,-6.1565,-6.1561,-6.1558,-6.1648,-6.1655,-6.1662,-6.1781,0,0,-6.1683,-6.1686,0,0,0,0,0,0,0,0,-6.1385,-6.1399,-6.151,-6.1511,-6.1511,-6.1576,-6.1569,-6.1672,-6.157,-6.1546,-6.156,-6.1556,-6.1629,-6.1637,-6.1663,-6.1785,-6.1789,-6.1684,-6.1688,-6.1691,-6.1693,0,0,0,0,0,0,0,-6.1378,-6.1394,-6.1558,-6.1512,-6.1512,-6.1499,-6.1508,-6.1588,-6.1607,-6.1548,-6.1545,-6.1557,-6.1628,-6.1656,-6.1665,-6.179,-6.1684,-6.169,-6.1694,-6.1697,-6.2015,-6.2018,0,0,0,0,0,0,-6.1373,-6.1389,-6.1555,-6.1561,-6.1438,-6.1506,-6.1517,-6.1559,-6.1606,-6.161,-6.156,-6.1554,-6.1646,-6.1656,-6.1668,-6.181,-6.1691,-6.1698,-6.1702,-6.201,-6.2015,-6.202,0,0,0,0,0,0,-6.1368,-6.1388,-6.1551,-6.1474,-6.1494,-6.1514,-6.1561,-6.1563,-6.1591,-6.1615,-6.1618,-6.1585,-6.1643,-6.1658,-6.1753,-6.1813,-6.1701,-6.1708,-6.2005,-6.2012,-6.2018,-6.2097,0,0,0,0,0,0,-6.1362,-6.1387,-6.1433,-6.1476,-6.1498,-6.1637,-6.1565,-6.1567,-6.1604,-6.1597,-6.164,-6.1643,-6.1641,-6.1743,-6.176,-6.1821,-6.1713,-6.2,-6.2008,-6.2016,-6.2089,-6.2105,-6.2119,0,0,0,0,0,-6.1354,-6.145,-6.1436,-6.1456,-6.1557,-6.1641,-6.1653,-6.1651,-6.1609,-6.1655,-6.1671,-6.1642,-6.1804,-6.1753,-6.1772,-6.1836,-6.1996,-6.2006,-6.2015,-6.2082,-6.2102,-6.2118,0,0,0,0,0,0,-6.1412,-6.1456,-6.144,-6.1554,-6.1594,-6.1632,-6.169,-6.1671,-6.1723,-6.1714,-6.1707,-6.1717,-6.1817,-6.1836,-6.1779,-6.1953,-6.1893,-6.1907,-6.1938,-6.1957,-6.1971,-6.1964,-6.1719,0,0,0,0,0,-6.1439,-6.1505,-6.1538,-6.1635,-6.1657,-6.167,-6.1706,-6.1701,-6.1742,-6.1758,-6.1781,-6.182,-6.188,-6.1919,-6.1975,-6.2091,-6.21,-6.2144,-6.2159,-6.2171,-6.2183,-6.2246,-6.2266,-6.2051,-6.2051,-6.205,0,0,-6.1493,-6.1525,-6.1567,-6.1648,-6.1678,-6.1746,-6.1685,-6.1758,-6.1807,-6.1769,-6.1861,-6.188,-6.1923,-6.2029,-6.2077,-6.2048,-6.2245,-6.2183,-6.2193,-6.2198,-6.2258,-6.2278,-6.2296,-6.2057,-6.2056,-6.2055,0,0,-6.1627,-6.1658,-6.1743,-6.1775,-6.1824,-6.1832,-6.1853,-6.1894,-6.1906,-6.1999,-6.1971,-6.2029,-6.2132,-6.2164,-6.2194,-6.2341,-6.2316,-6.2359,-6.2437,-6.2498,-6.2515,-6.253,-6.2583,-6.2602,-6.2371,-6.2371,-6.2371,0,-6.1688,-6.179,-6.1788,-6.1864,-6.19,-6.1871,-6.1956,-6.1987,-6.205,-6.2075,-6.2041,-6.2171,-6.2197,-6.2311,-6.2348,-6.2373,-6.2395,-6.2354,-6.2514,-6.2529,-6.2542,-6.2593,-6.2612,-6.2376,-6.2376,-6.2375,-6.2375,0,-6.1863,-6.1934,-6.1996,-6.2061,-6.2104,-6.2184,-6.2192,-6.2236,-6.2227,-6.2239,-6.2334,-6.2366,-6.2428,-6.2454,-6.2446,-6.2568,-6.2548,-6.2514,-6.2454,-6.2568,-6.2615,-6.2634,-6.2383,-6.2382,-6.238,-6.2379,0,0,-6.2035,-6.2099,-6.2122,-6.2151,-6.2203,-6.2257,-6.2335,-6.2398,-6.2436,-6.248,-6.2545,-6.2634,-6.2603,-6.2637,-6.2632,-6.2686,-6.2801,-6.2645,-6.2646,-6.2673,-6.2937,-6.2962,-6.2984,-6.2785,-6.2789,-6.2792,-6.2933,0,-6.2173,-6.2313,-6.2313,-6.2441,-6.2506,-6.248,-6.2548,-6.2586,-6.2599,-6.2655,-6.2669,-6.2732,-6.2687,-6.2708,-6.276,-6.2776,-6.2854,-6.2766,-6.2844,-6.2847,-6.2834,-6.3009,-6.3036,-6.3168,-6.2952,-6.2955,-6.2957,0,-6.2352,-6.2405,-6.2541,-6.2584,-6.2611,-6.2673,-6.2731,-6.2785,-6.2827,-6.2833,-6.2872,-6.2859,-6.2937,-6.2875,-6.2982,-6.2922,-6.2954,-6.2967,-6.2972,-6.2979,-6.2909,-6.302,-6.321,-6.323,-6.2986,-6.2984,-6.2981,0,-6.2465,-6.257,-6.2665,-6.269,-6.2743,-6.2787,-6.281,-6.2849,-6.2887,-6.2938,-6.2962,-6.302,-6.3052,-6.3096,-6.3098,-6.3053,-6.3207,-6.3144,-6.3213,-6.3213,-6.3246,-6.3244,-6.3443,-6.3267,-6.3267,-6.3266,-6.3266,0,-6.2618,-6.2702,-6.2716,-6.2774,-6.2867,-6.2866,-6.2958,-6.2977,-6.3012,-6.3072,-6.3052,-6.3109,-6.3108,-6.3165,-6.3167,-6.3256,-6.327,-6.3276,-6.3276,-6.3278,-6.3278,-6.3299,-6.329,-6.3272,-6.327,-6.3269,-6.3268,0,-6.2759,-6.2772,-6.2874,-6.2916,-6.2929,-6.2995,-6.303,-6.3085,-6.3097,-6.3174,-6.3191,-6.321,-6.3276,-6.3283,-6.3359,-6.3361,-6.3468,-6.3457,-6.3454,-6.3453,-6.3521,-6.3514,-6.3741,-6.377,-6.3575,-6.3577,-6.3578,0,-6.2856,-6.2921,-6.2971,-6.3011,-6.3038,-6.3102,-6.3142,-6.3143,-6.3185,-6.3239,-6.3287,-6.3352,-6.3404,-6.3512,-6.353,-6.3589,-6.3579,-6.3655,-6.3588,-6.3589,-6.3581,-6.3577,-6.3583,-6.3668,-6.367,-6.3672,-6.3673,0,-6.3028,-6.3031,-6.309,-6.3152,-6.3201,-6.3249,-6.3294,-6.3327,-6.3334,-6.3382,-6.3451,-6.3492,-6.3571,-6.3636,-6.3694,-6.3716,-6.3696,-6.3694,-6.3713,-6.3716,-6.3712,-6.3715,-6.349,-6.3689,-6.3687,-6.3686,-6.3685,-6.3684,-6.315,-6.3206,-6.3251,-6.3317,-6.3352,-6.3394,-6.3449,-6.3468,-6.3527,-6.3593,-6.359,-6.3666,-6.3706,-6.3783,-6.3809,-6.3867,-6.3842,-6.3869,-6.3876,-6.3883,-6.389,-6.3703,-6.3878,-6.3877,-6.3877,-6.3877,-6.3876,0,-6.332,-6.3348,-6.3409,-6.3474,-6.3526,-6.3505,-6.3554,-6.3599,-6.3667,-6.3707,-6.376,-6.3839,-6.3902,-6.3926,-6.3987,-6.4029,-6.4022,-6.4045,-6.4042,-6.4048,-6.3909,-6.3887,-6.4051,-6.4051,-6.4051,-6.4051,-6.4051,-6.4051,-6.3415,-6.3509,-6.3518,-6.3629,-6.3655,-6.3732,-6.3762,-6.3801,-6.3833,-6.3924,-6.3977,-6.3993,-6.4027,-6.409,-6.4147,-6.4152,-6.4175,-6.4203,-6.4204,-6.4075,-6.4057,-6.404,-6.4019,-6.4208,-6.4208,-6.4338,-6.4339,-6.434]}]]